Location: Newark
(51.2625°N, 13.3939°E)
Time: 01:26:13
(UTC+00:00)

deb Explorer IX - Pass Details

Date: 24 November 2019
Orbit: 545 x 1105 km, 38.8° (Epoch: 06 December)

Event Time Altitude Azimuth Distance (km) Brightness Sun altitude
Rises 20:29:23 0° 194° (SSW) 3,907 - -48.5°
Reaches altitude 10° 20:34:47 10° 162° (SSE) 2,916 - -49.2°
Maximum altitude 20:36:35 11° 147° (SSE) 2,815 - -49.4°
Drops below altitude 10° 20:38:21 10° 133° (SE) 2,865 - -49.6°
Sets 20:43:27 0° 100° (E) 3,707 - -50.3°
